Weather History for Port Angeles, WA

Change the Weather History Date:

Wednesday, October 2, 2013

  Actual Average Record
Temperature  
Mean Temperature 49 °F -  
Max Temperature 54 °F 62 °F 71 °F (1970)
Min Temperature 45 °F 46 °F 36 °F (1950)
Degree Days  
Heating Degree Days 16    
Moisture  
Dew Point 46 °F    
Average Humidity 87    
Maximum Humidity 97    
Minimum Humidity 77    
Precipitation  
Precipitation 0.17 in - - ()
Sea Level Pressure  
Sea Level Pressure 30.08 in    
Wind  
Wind Speed 4 mph (West)    
Max Wind Speed 8 mph    
Max Gust Speed -    
Visibility 10 miles    
Events Rain    
Averages and records for this station are not official NWS values.
T = Trace of Precipitation, MM = Missing Value Source: NWS Daily Summary

Daily Weather History Graph

Daily Weather History Graph

Search for Another Location

Airport:

Trip Planner

Search our weather history database for the weather conditions in past years. The results will help you decide how hot, cold, wet, or windy it might be!

Date:

Astronomy

Oct. 02, 2013 Rise Set
Actual Time 7:15 AM PDT 6:50 PM PDT
Civil Twilight 6:44 AM PDT 7:21 PM PDT
Nautical Twilight 6:08 AM PDT 7:57 PM PDT
Astronomical Twilight 5:31 AM PDT 8:33 PM PDT
Moon 4:45 AM PDT (10/2) 5:35 PM PDT (10/2)
Length of Visible Light 12h 37m
Length of Day
11h 35m
Waning Crescent, 6% of the Moon is Illuminated
Oct 2
Waning Crescent
Oct 4
New
Oct 11
First Quarter
Oct 18
Full
Oct 26
Last Quarter

Hourly Weather History & Observations

Time (PDT) Temp. Windchill Dew Point Humidity Pressure Visibility Wind Dir Wind Speed Gust Speed Precip Events Conditions
12:53 AM 48.9 °F - 44.1 °F 83% 30.09 in 10.0 mi SW 6.9 mph - 0.01 in   Overcast
1:53 AM 50.0 °F - 44.1 °F 80% 30.09 in 10.0 mi WNW 6.9 mph - N/A   Overcast
2:53 AM 48.9 °F - 45.0 °F 86% 30.09 in 10.0 mi WSW 3.5 mph - 0.00 in   Overcast
3:53 AM 46.9 °F - 46.0 °F 97% 30.08 in 10.0 mi WSW 5.8 mph - 0.00 in Rain Light Rain
4:53 AM 48.0 °F - 45.0 °F 89% 30.07 in 10.0 mi SW 4.6 mph - 0.01 in Rain Light Rain
5:53 AM 46.9 °F - 45.0 °F 93% 30.06 in 10.0 mi WSW 5.8 mph - 0.00 in   Overcast
6:20 AM 46.9 °F - 45.0 °F 93% 30.05 in 10.0 mi Calm Calm - N/A   Overcast
6:53 AM 48.0 °F - 44.1 °F 86% 30.05 in 10.0 mi West 5.8 mph - N/A   Overcast
7:19 AM 48.0 °F - 44.1 °F 86% 30.05 in 10.0 mi West 6.9 mph - N/A   Overcast
7:53 AM 48.0 °F - 44.1 °F 86% 30.05 in 10.0 mi West 8.1 mph - 0.00 in Rain Light Rain
8:22 AM 48.9 °F - 45.0 °F 86% 30.05 in 10.0 mi NW 4.6 mph - 0.00 in Rain Light Rain
8:38 AM 48.9 °F - 46.0 °F 90% 30.05 in 10.0 mi NNW 3.5 mph - 0.00 in   Overcast
8:51 AM 48.2 °F - 46.4 °F 93% 30.05 in 10.0 mi WNW 3.5 mph - 0.00 in   Overcast
8:53 AM 48.9 °F - 46.0 °F 90% 30.05 in 10.0 mi WNW 3.5 mph - 0.00 in   Overcast
9:11 AM 48.9 °F - 46.0 °F 90% 30.05 in 10.0 mi Calm Calm - N/A   Overcast
9:28 AM 50.0 °F - 46.9 °F 89% 30.05 in 10.0 mi Calm Calm - N/A   Overcast
9:37 AM 50.0 °F - 46.0 °F 86% 30.05 in 10.0 mi North 3.5 mph - N/A   Overcast
9:51 AM 50.0 °F - 46.4 °F 87% 30.05 in 10.0 mi Calm Calm - N/A   Overcast
9:53 AM 50.0 °F - 46.9 °F 89% 30.06 in 10.0 mi Calm Calm - N/A   Overcast
10:30 AM 51.1 °F - 45.0 °F 80% 30.06 in 10.0 mi West 3.5 mph - N/A   Overcast
10:53 AM 51.1 °F - 44.1 °F 77% 30.06 in 10.0 mi Calm Calm - N/A   Overcast
11:53 AM 53.1 °F - 46.9 °F 80% 30.06 in 10.0 mi Calm Calm - N/A   Overcast
12:27 PM 53.1 °F - 46.9 °F 80% 30.05 in 10.0 mi Variable 4.6 mph - N/A   Overcast
12:39 PM 53.1 °F - 46.0 °F 77% 30.05 in 10.0 mi NNE 4.6 mph - N/A   Overcast
12:53 PM 53.1 °F - 46.9 °F 80% 30.06 in 10.0 mi NNE 6.9 mph - N/A   Mostly Cloudy
1:05 PM 52.0 °F - 46.0 °F 80% 30.05 in 10.0 mi NNE 5.8 mph - N/A   Mostly Cloudy
1:53 PM 51.1 °F - 46.9 °F 86% 30.06 in 10.0 mi North 3.5 mph - 0.04 in Rain Light Rain
2:15 PM 51.1 °F - 46.0 °F 83% 30.06 in 10.0 mi Calm Calm - 0.00 in Rain Light Rain
2:53 PM 51.1 °F - 46.0 °F 83% 30.07 in 10.0 mi Calm Calm - 0.03 in Rain Light Rain
3:53 PM 51.1 °F - 46.9 °F 86% 30.07 in 10.0 mi Calm Calm - 0.08 in Rain Light Rain
4:53 PM 52.0 °F - 46.9 °F 83% 30.08 in 10.0 mi Calm Calm - 0.00 in   Mostly Cloudy
5:53 PM 51.1 °F - 48.0 °F 89% 30.09 in 10.0 mi Calm Calm - N/A   Clear
6:53 PM 48.0 °F - 46.0 °F 93% 30.11 in 10.0 mi SW 5.8 mph - N/A   Scattered Clouds
7:53 PM 46.0 °F 43.1 °F 44.1 °F 93% 30.12 in 10.0 mi SW 5.8 mph - N/A   Scattered Clouds
8:53 PM 45.0 °F 42.6 °F 43.0 °F 93% 30.14 in 10.0 mi SW 4.6 mph - N/A   Partly Cloudy
9:53 PM 46.0 °F - 44.1 °F 93% 30.17 in 10.0 mi Calm Calm - N/A   Overcast
10:53 PM 46.9 °F - 45.0 °F 93% 30.18 in 10.0 mi SW 4.6 mph - 0.00 in   Overcast
11:53 PM 46.9 °F - 45.0 °F 93% 30.20 in 10.0 mi SW 4.6 mph - N/A   Overcast